Estación de Algarrobo Bajo INIA

Ultimos registro cada 15 minutos 63
Estación Fecha / Hora Temperatura Humedad Lluvia Velocidad Dirección Radiación Presion
63 Algarrobo Bajo INIA 03-09-2026 15:30 21,5 52,4 0 2,4 246 297,8 0
62 Algarrobo Bajo INIA 03-09-2026 15:15 21,7 51,3 0 2,5 239 419,1 0
61 Algarrobo Bajo INIA 03-09-2026 15:00 21,4 51,4 0 2,6 242 428,2 0
60 Algarrobo Bajo INIA 03-09-2026 14:45 21,4 53,2 0 2,6 242 314,1 0
59 Algarrobo Bajo INIA 03-09-2026 14:30 21,6 51,7 0 2,7 235 398,1 0
58 Algarrobo Bajo INIA 03-09-2026 14:15 22,3 49,2 0 2,8 228 392,3 0
57 Algarrobo Bajo INIA 03-09-2026 14:00 22,7 48,4 0 2,9 230 725,8 0
56 Algarrobo Bajo INIA 03-09-2026 13:45 22,2 50,4 0 2,6 228 374,7 0
55 Algarrobo Bajo INIA 03-09-2026 13:30 22,7 47,9 0 2,5 232 484,6 0
54 Algarrobo Bajo INIA 03-09-2026 13:15 22,8 49,5 0 2,3 228 536,1 0
53 Algarrobo Bajo INIA 03-09-2026 13:00 22,9 47,5 0 2,5 226 681,8 0
52 Algarrobo Bajo INIA 03-09-2026 12:45 22,7 49,8 0 2,4 226 517,7 0
51 Algarrobo Bajo INIA 03-09-2026 12:30 23 47 0 1,9 223 608,9 0
50 Algarrobo Bajo INIA 03-09-2026 12:15 22,2 49,2 0 0,9 258 508,5 0
49 Algarrobo Bajo INIA 03-09-2026 12:00 22 48 0 0,8 247 508,3 0
48 Algarrobo Bajo INIA 03-09-2026 11:45 21,5 48 0 0,7 246 509,1 0
47 Algarrobo Bajo INIA 03-09-2026 11:30 21 50,4 0 0,8 236 521,3 0
46 Algarrobo Bajo INIA 03-09-2026 11:15 20,8 51,3 0 0,8 206 581,4 0
45 Algarrobo Bajo INIA 03-09-2026 11:00 19,9 54,9 0 0,5 208 655,8 0
44 Algarrobo Bajo INIA 03-09-2026 10:45 18 63,7 0 0,5 214 616,8 0
43 Algarrobo Bajo INIA 03-09-2026 10:30 16,6 69,3 0 0,4 206 458,2 0
42 Algarrobo Bajo INIA 03-09-2026 10:15 16,2 71,1 0 0,7 172 527,7 0
41 Algarrobo Bajo INIA 03-09-2026 10:00 15 80,5 0 0,2 187 482,3 0
40 Algarrobo Bajo INIA 03-09-2026 09:45 13,2 92,3 0 0 0 446,4 0
39 Algarrobo Bajo INIA 03-09-2026 09:30 11,6 97,3 0 0 0 403,5 0
38 Algarrobo Bajo INIA 03-09-2026 09:15 10,6 98,3 0 0,1 70 361,3 0
37 Algarrobo Bajo INIA 03-09-2026 09:00 9,5 97,8 0 0,1 76 319,1 0
36 Algarrobo Bajo INIA 03-09-2026 08:45 9,1 97 0 0,1 170 223,8 0
35 Algarrobo Bajo INIA 03-09-2026 08:30 8,4 97,7 0 0 0 145,7 0
34 Algarrobo Bajo INIA 03-09-2026 08:15 7,7 98,1 0 0 165 125,8 0
33 Algarrobo Bajo INIA 03-09-2026 08:00 7,5 98,2 0 0 0 86,1 0
32 Algarrobo Bajo INIA 03-09-2026 07:45 7,3 97,8 0 0 0 64,8 0
31 Algarrobo Bajo INIA 03-09-2026 07:30 7,4 97,6 0 0 0 10,1 0
30 Algarrobo Bajo INIA 03-09-2026 07:15 7,5 97,7 0 0 0 4,2 0
29 Algarrobo Bajo INIA 03-09-2026 07:00 7,5 97,6 0 0 0 1,5 0
28 Algarrobo Bajo INIA 03-09-2026 06:45 7,6 97,3 0 0 0 0,4 0
27 Algarrobo Bajo INIA 03-09-2026 06:30 7,8 97,2 0 0 238 0,2 0
26 Algarrobo Bajo INIA 03-09-2026 06:15 8,1 96,8 0 0 238 0,2 0
25 Algarrobo Bajo INIA 03-09-2026 06:00 7,7 97,6 0 0 0 0,2 0
24 Algarrobo Bajo INIA 03-09-2026 05:45 7,5 96,9 0 0 0 0,2 0
23 Algarrobo Bajo INIA 03-09-2026 05:30 7,6 97,1 0 0 0 0,2 0
22 Algarrobo Bajo INIA 03-09-2026 05:15 7,7 96,7 0 0 0 0,2 0
21 Algarrobo Bajo INIA 03-09-2026 05:00 7,5 96,7 0 0 0 0,2 0
20 Algarrobo Bajo INIA 03-09-2026 04:45 7,6 96,5 0 0 0 0,2 0
19 Algarrobo Bajo INIA 03-09-2026 04:30 8,6 96,5 0 0 0 0,2 0
18 Algarrobo Bajo INIA 03-09-2026 04:15 9,2 95,9 0 0 0 0,2 0
17 Algarrobo Bajo INIA 03-09-2026 04:00 9,3 97 0 0 0 0,2 0
16 Algarrobo Bajo INIA 03-09-2026 03:45 9,5 96,7 0 0 0 0,2 0
15 Algarrobo Bajo INIA 03-09-2026 03:30 8,8 96,9 0 0 0 0,2 0
14 Algarrobo Bajo INIA 03-09-2026 03:15 9,4 95,3 0 0 0 0,2 0
13 Algarrobo Bajo INIA 03-09-2026 03:00 9,1 96,1 0 0 0 0,2 0
12 Algarrobo Bajo INIA 03-09-2026 02:45 8,9 95,2 0 0 0 0,1 0
11 Algarrobo Bajo INIA 03-09-2026 02:30 9,1 95,3 0 0 0 0 0
10 Algarrobo Bajo INIA 03-09-2026 02:15 9,8 95,5 0 0 0 0 0
9 Algarrobo Bajo INIA 03-09-2026 02:00 9,5 95,8 0 0 0 0 0
8 Algarrobo Bajo INIA 03-09-2026 01:45 10 94,9 0 0 0 0 0
7 Algarrobo Bajo INIA 03-09-2026 01:30 10,4 94,6 0 0 0 0 0
6 Algarrobo Bajo INIA 03-09-2026 01:15 10,7 94,6 0 0,1 55 0 0
5 Algarrobo Bajo INIA 03-09-2026 01:00 10,5 95,2 0 0,1 48 0 0
4 Algarrobo Bajo INIA 03-09-2026 00:45 10,4 94,4 0 0,6 48 0 0
3 Algarrobo Bajo INIA 03-09-2026 00:30 10,7 94,6 0 0 0 0 0
2 Algarrobo Bajo INIA 03-09-2026 00:15 10,8 94 0 0 0 0 0
1 Algarrobo Bajo INIA 03-09-2026 00:00 10,7 94,4 0 0 66 0 0